Tracking 22836 objects as of 18-Apr-2021
HD Live streaming from Space Station
objects crossing your sky now

GB 1

Track GB 1 now!
10-day predictions
GB 1 is classified as:


NORAD ID: 14143
Int'l Code: 1983-056C
Perigee: 385.3 km
Apogee: 1,733.8 km
Inclination: 63.3 °
Period: 106.2 minutes
Semi major axis: 7430 km
RCS: Unknown
Launch date: June 9, 1983
Source: United States (US)
Launch site: AIR FORCE WESTERN TEST RANGE (AFWTR)
aabbcc
Your satellite tracking list
Your tracking list is empty




NASA's NSSDC Master Catalog

Two Line Element Set (TLE):
1 14143U 83056C   21107.88654798  .00002569  00000-0  20521-3 0  9996
2 14143  63.2977 323.5076 0907352  97.9007 272.5868 13.55409771 88919
Source of the keplerian elements: McCants